Weather History for Siemreap, Cambodia

Change the Weather History Date:

Monday, September 23, 2013

  Actual Average Record
Temperature  
Mean Temperature 82 °F -  
Max Temperature 87 °F - - ()
Min Temperature 78 °F - - ()
Cooling Degree Days 18    
Growing Degree Days 32 (Base 50)    
Moisture  
Dew Point 75 °F    
Average Humidity 81    
Maximum Humidity 94    
Minimum Humidity 62    
Precipitation  
Precipitation 0.00 in - - ()
Sea Level Pressure  
Sea Level Pressure 29.65 in    
Wind  
Wind Speed 6 mph ()    
Max Wind Speed 13 mph    
Max Gust Speed -    
Visibility 6.0 miles    
Events Rain    
T = Trace of Precipitation, MM = Missing Value Source: Averaged Metar Reports

Daily Weather History Graph

Daily Weather History Graph

Search for Another Location

Airport:

Trip Planner

Search our weather history database for the weather conditions in past years. The results will help you decide how hot, cold, wet, or windy it might be!

Date:

Astronomy

Sep. 23, 2013 Rise Set
Actual Time 5:53 AM ICT 6:00 PM ICT
Civil Twilight 5:32 AM ICT 6:21 PM ICT
Nautical Twilight 5:07 AM ICT 6:46 PM ICT
Astronomical Twilight 4:43 AM ICT 7:10 PM ICT
Moon 8:53 PM ICT (9/23) 9:00 AM ICT (9/23)
Length of Visible Light 12h 48m
Length of Day
12h 06m
Waning Gibbous, 85% of the Moon is Illuminated
Sep 23
Waning Gibbous
Sep 27
Last Quarter
Oct 5
New
Oct 12
First Quarter
Oct 19
Full

Hourly Weather History & Observations

Time (ICT) Temp. Heat Index Dew Point Humidity Pressure Visibility Wind Dir Wind Speed Gust Speed Precip Events Conditions
12:00 AM 82.4 °F 88.2 °F 73.4 °F 74% 29.65 in 6.2 mi West 8.1 mph - N/A   Scattered Clouds
12:30 AM 82.4 °F 88.2 °F 73.4 °F 74% 29.62 in 6.2 mi WSW 6.9 mph - N/A   Scattered Clouds
1:00 AM 80.6 °F 86.2 °F 75.2 °F 84% 29.62 in 6.2 mi WSW 10.4 mph - N/A   Scattered Clouds
7:00 AM 78.8 °F - 73.4 °F 83% 29.62 in 6.2 mi WSW 4.6 mph - N/A   Scattered Clouds
7:30 AM 78.8 °F - 75.2 °F 89% 29.62 in 6.2 mi WSW 3.5 mph - N/A   Scattered Clouds
8:00 AM 80.6 °F 85.4 °F 73.4 °F 79% 29.62 in 6.2 mi WSW 4.6 mph - N/A   Scattered Clouds
8:30 AM 80.6 °F 86.2 °F 75.2 °F 84% 29.65 in 6.2 mi Variable 3.5 mph - N/A   Scattered Clouds
9:00 AM 80.6 °F 85.4 °F 73.4 °F 79% 29.68 in 6.2 mi WSW 8.1 mph - N/A   Scattered Clouds
9:30 AM 82.4 °F 89.5 °F 75.2 °F 79% 29.68 in 6.2 mi WSW 10.4 mph - N/A   Scattered Clouds
10:00 AM 84.2 °F 90.9 °F 73.4 °F 70% 29.68 in 6.2 mi WSW 10.4 mph - N/A   Scattered Clouds
10:30 AM 84.2 °F 90.9 °F 73.4 °F 70% 29.68 in 6.2 mi WSW 8.1 mph - N/A   Scattered Clouds
11:00 AM 84.2 °F 90.9 °F 73.4 °F 70% 29.68 in 6.2 mi West 8.1 mph - N/A   Scattered Clouds
11:30 AM 86.0 °F 93.4 °F 73.4 °F 66% 29.68 in 6.2 mi West 10.4 mph - N/A   Scattered Clouds
12:00 PM 86.0 °F 93.4 °F 73.4 °F 66% 29.65 in 6.2 mi West 10.4 mph - N/A   Scattered Clouds
12:30 PM 87.8 °F 95.6 °F 73.4 °F 62% 29.65 in 6.2 mi West 9.2 mph - N/A   Scattered Clouds
1:30 PM 86.0 °F 93.4 °F 73.4 °F 66% 29.62 in 6.2 mi West 12.7 mph - N/A   Scattered Clouds
2:30 PM 82.4 °F 90.9 °F 77.0 °F 84% 29.62 in 6.2 mi WSW 9.2 mph - N/A   Scattered Clouds
3:00 PM 82.4 °F 90.9 °F 77.0 °F 84% 29.59 in 6.2 mi WSW 8.1 mph - N/A   Scattered Clouds
3:30 PM 84.2 °F 94.1 °F 77.0 °F 79% 29.59 in 6.2 mi SW 8.1 mph - N/A   Scattered Clouds
4:00 PM 84.2 °F 94.1 °F 77.0 °F 79% 29.59 in 6.2 mi SSW 8.1 mph - N/A   Scattered Clouds
4:30 PM 84.2 °F 92.3 °F 75.2 °F 74% 29.59 in 6.2 mi WSW 8.1 mph - N/A   Scattered Clouds
5:30 PM 82.4 °F 89.5 °F 75.2 °F 79% 29.59 in 5.6 mi SW 9.2 mph - N/A Rain Light Rain
6:00 PM 80.6 °F 87.1 °F 77.0 °F 89% 29.62 in 6.2 mi SW 6.9 mph - N/A   Mostly Cloudy
6:30 PM 80.6 °F 87.1 °F 77.0 °F 89% 29.62 in 5.6 mi Calm Calm - N/A   Scattered Clouds
7:00 PM 80.6 °F 87.1 °F 77.0 °F 89% 29.65 in 5.6 mi WSW 4.6 mph - N/A   Mostly Cloudy
7:30 PM 80.6 °F 87.1 °F 77.0 °F 89% 29.65 in 5.6 mi West 2.3 mph - N/A   Mostly Cloudy
8:00 PM 80.6 °F 87.1 °F 77.0 °F 89% 29.65 in 5.6 mi WSW 4.6 mph - N/A   Scattered Clouds
8:30 PM 80.6 °F 87.1 °F 77.0 °F 89% 29.68 in 5.6 mi West 3.5 mph - N/A   Scattered Clouds
9:00 PM 80.6 °F 87.1 °F 77.0 °F 89% 29.68 in 5.6 mi SW 5.8 mph - N/A   Scattered Clouds
9:30 PM 80.6 °F 87.1 °F 77.0 °F 89% 29.68 in 5.6 mi SW 5.8 mph - N/A   Scattered Clouds
10:00 PM 78.8 °F - 77.0 °F 94% 29.71 in 5.6 mi SW 3.5 mph - N/A   Scattered Clouds
10:30 PM 80.6 °F 86.2 °F 75.2 °F 84% 29.71 in 5.6 mi SW 3.5 mph - N/A   Scattered Clouds
11:00 PM 78.8 °F - 75.2 °F 89% 29.68 in 5.6 mi SW 1.2 mph - N/A   Scattered Clouds
11:30 PM 78.8 °F - 75.2 °F 89% 29.68 in 5.6 mi Calm Calm - N/A   Scattered Clouds